KE7OZA Weather Reports


time (UTC)temp
C
wind
direction
speed
KPH
gust
KPH
rain 1hr
cm
rain 24hr
cm
rain mn
cm
humidity
%
barometer
mb
20260505092056 12 165 3.2 11.3 0.00 0.00 0.00 69 1012.0
20260505091607 12 208 1.6 17.7 0.00 0.00 0.00 69 1011.9
20260505091059 12 228 3.2 17.7 0.00 0.00 0.00 68 1012.0
20260505090559 12 202 4.8 17.7 0.00 0.00 0.00 69 1012.0
20260505090057 12 101 3.2 14.5 0.00 0.00 0.00 68 1011.9
20260505085559 12 242 3.2 12.9 0.00 0.00 0.00 68 1011.9
20260505085056 12 179 1.6 11.3 0.00 0.00 0.00 68 1011.9
20260505084557 12 165 1.6 8.0 0.00 0.00 0.00 68 1011.9
20260505084100 13 133 1.6 8.0 0.00 0.00 0.00 68 1011.8
20260505083558 13 127 1.6 4.8 0.00 0.00 0.00 67 1011.9
20260505083102 13 156 1.6 19.3 0.00 0.00 0.00 67 1011.9
20260505082555 13 155 3.2 19.3 0.00 0.00 0.00 66 1011.8
20260505082059 13 240 3.2 12.9 0.00 0.00 0.00 66 1011.9
20260505081605 13 143 1.6 9.7 0.00 0.00 0.00 65 1011.9
20260505081057 13 176 3.2 8.0 0.00 0.00 0.00 65 1011.9
20260505080558 13 232 1.6 8.0 0.00 0.00 0.00 65 1011.9
20260505080058 13 139 1.6 6.4 0.00 0.00 0.00 64 1011.9
20260505075601 13 126 1.6 6.4 0.00 0.00 0.00 64 1011.8
20260505075055 13 164 1.6 6.4 0.00 0.00 0.00 63 1011.8
20260505074556 13 270 0.0 4.8 0.00 0.00 0.00 63 1011.8
20260505074056 13 153 1.6 4.8 0.00 0.00 0.00 62 1011.8
20260505073555 13 151 1.6 4.8 0.00 0.00 0.00 61 1011.8
20260505073126 13 161 1.6 6.4 0.00 0.00 0.00 60 1011.8
20260505072555 13 205 1.6 6.4 0.00 0.00 0.00 60 1011.8
20260505072101 14 232 1.6 6.4 0.00 0.00 0.00 59 1011.8
20260505071604 14 233 1.6 6.4 0.00 0.00 0.00 58 1011.7
20260505071101 14 240 0.0 6.4 0.00 0.00 0.00 57 1011.6
20260505070600 14 141 3.2 6.4 0.00 0.00 0.00 56 1011.6
20260505070104 14 203 0.0 6.4 0.00 0.00 0.00 55 1011.5
20260505065603 15 207 1.6 9.7 0.00 0.00 0.00 56 1011.5
20260505065100 15 209 3.2 12.9 0.00 0.00 0.00 55 1011.5
20260505064558 15 230 1.6 12.9 0.00 0.00 0.00 54 1011.4
20260505064059 15 220 3.2 12.9 0.00 0.00 0.00 53 1011.4
20260505063559 15 238 1.6 8.0 0.00 0.00 0.00 52 1011.5
20260505063056 15 211 3.2 8.0 0.00 0.00 0.00 52 1011.4
20260505062602 15 232 1.6 8.0 0.00 0.00 0.00 52 1011.4
20260505062100 15 215 1.6 8.0 0.00 0.00 0.00 51 1011.4
20260505061558 15 181 3.2 11.3 0.00 0.00 0.00 52 1011.5
20260505061059 15 214 1.6 11.3 0.00 0.00 0.00 51 1011.4
20260505060559 16 239 1.6 6.4 0.00 0.00 0.00 50 1011.5
20260505060059 16 218 1.6 8.0 0.00 0.00 0.00 49 1011.4
20260505055603 16 247 3.2 8.0 0.00 0.00 0.00 49 1011.4
20260505055059 16 224 1.6 6.4 0.00 0.00 0.00 49 1011.4
20260505054559 16 214 1.6 8.0 0.00 0.00 0.00 48 1011.4
20260505054102 16 0 1.6 9.7 0.00 0.00 0.00 48 1011.3
20260505053559 16 222 3.2 9.7 0.00 0.00 0.00 47 1011.4
20260505053057 16 206 1.6 11.3 0.00 0.00 0.00 47 1011.4
20260505052558 16 228 3.2 11.3 0.00 0.00 0.00 47 1011.4
20260505052059 16 230 1.6 19.3 0.00 0.00 0.00 48 1011.4
20260505051606 16 151 1.6 19.3 0.00 0.00 0.00 47 1011.4
20260505051100 16 251 4.8 19.3 0.00 0.00 0.00 47 1011.3
20260505050558 16 0 1.6 14.5 0.00 0.00 0.00 46 1011.3
20260505050106 16 217 1.6 14.5 0.00 0.00 0.00 47 1011.4
20260505041603 17 130 4.8 19.3 0.00 0.00 0.00 44 1011.1
20260505041058 17 232 4.8 19.3 0.00 0.00 0.00 44 1011.0
20260505040558 17 158 3.2 16.1 0.00 0.00 0.00 44 1010.9
20260505040056 17 236 4.8 14.5 0.00 0.00 0.00 44 1010.9
20260505035559 17 222 1.6 19.3 0.00 0.00 0.00 44 1010.8
20260505035101 18 252 1.6 19.3 0.00 0.00 0.00 44 1010.7
20260505034557 18 124 4.8 14.5 0.00 0.00 0.00 43 1010.6
20260505034058 18 241 3.2 19.3 0.00 0.00 0.00 43 1010.6
20260505033559 18 247 3.2 19.3 0.00 0.00 0.00 43 1010.5
20260505033056 18 230 3.2 16.1 0.00 0.00 0.00 42 1010.4
20260505032559 18 220 3.2 16.1 0.00 0.00 0.00 42 1010.4
20260505032058 18 233 3.2 14.5 0.00 0.00 0.00 42 1010.4
20260505031557 18 133 3.2 22.5 0.00 0.00 0.00 42 1010.3
20260505031058 18 227 3.2 22.5 0.00 0.00 0.00 43 1010.3
20260505030558 18 260 3.2 12.9 0.00 0.00 0.00 43 1010.2
20260505030058 18 135 3.2 17.7 0.00 0.00 0.00 43 1010.2
20260505025559 19 162 3.2 17.7 0.00 0.00 0.00 42 1010.1
20260505025059 19 173 3.2 14.5 0.00 0.00 0.00 42 1010.1
20260505024604 19 166 1.6 17.7 0.00 0.00 0.00 42 1010.0
20260505024058 19 162 3.2 17.7 0.00 0.00 0.00 41 1010.0
20260505023558 20 174 3.2 16.1 0.00 0.00 0.00 41 1010.0
20260505023056 20 123 4.8 17.7 0.00 0.00 0.00 40 1009.9
20260505022559 20 226 3.2 17.7 0.00 0.00 0.00 41 1010.0
20260505022059 20 0 4.8 17.7 0.00 0.00 0.00 41 1010.0
20260505021558 20 160 4.8 19.3 0.00 0.00 0.00 40 1010.0
20260505021058 20 162 3.2 22.5 0.00 0.00 0.00 40 1010.0
20260505020558 20 108 4.8 22.5 0.00 0.00 0.00 40 1010.0
20260505020059 20 150 4.8 22.5 0.00 0.00 0.00 39 1009.9
20260505015559 20 332 3.2 14.5 0.00 0.00 0.00 39 1010.0
20260505015101 21 126 3.2 14.5 0.00 0.00 0.00 39 1010.0
20260505014606 21 220 1.6 25.7 0.00 0.00 0.00 39 1010.0
20260505014102 21 217 6.4 25.7 0.00 0.00 0.00 38 1009.9
20260505013558 21 232 3.2 16.1 0.00 0.00 0.00 37 1010.0
20260505013121 21 151 6.4 16.1 0.00 0.00 0.00 37 1009.9
20260505012558 22 169 4.8 14.5 0.00 0.00 0.00 37 1009.9
20260505012100 22 190 3.2 14.5 0.00 0.00 0.00 37 1010.0
20260505011628 22 112 3.2 20.9 0.00 0.00 0.00 37 1010.0
20260505011058 22 251 4.8 20.9 0.00 0.00 0.00 35 1010.0
20260505010601 22 109 6.4 19.3 0.00 0.00 0.00 36 1010.0
20260505010115 22 166 4.8 20.9 0.00 0.00 0.00 36 1009.9
20260505005559 22 221 3.2 20.9 0.00 0.00 0.00 36 1010.0
20260505005059 23 183 3.2 16.1 0.00 0.00 0.00 36 1010.0
20260505004558 23 275 4.8 14.5 0.00 0.00 0.00 35 1010.0
20260505004058 23 280 1.6 14.5 0.00 0.00 0.00 35 1009.9
20260505003601 23 196 4.8 19.3 0.00 0.00 0.00 35 1010.0
20260505003104 23 253 6.4 19.3 0.00 0.00 0.00 34 1009.9
20260505002558 23 218 8.0 19.3 0.00 0.00 0.00 33 1009.9
20260505002058 23 205 1.6 20.9 0.00 0.00 0.00 34 1009.9
20260505001604 23 162 3.2 20.9 0.00 0.00 0.00 34 1009.9
20260505001058 24 217 3.2 19.3 0.00 0.00 0.00 33 1009.9
20260505000559 23 240 6.4 19.3 0.00 0.00 0.00 32 1009.8
20260505000106 24 153 4.8 20.9 0.00 0.00 0.00 32 1009.8
20260504235559 24 199 4.8 20.9 0.00 0.00 0.00 31 1009.9
20260504235102 24 193 4.8 19.3 0.00 0.00 0.00 31 1009.8
20260504234556 24 322 6.4 20.9 0.00 0.00 0.00 31 1009.8
20260504234102 24 205 6.4 22.5 0.00 0.00 0.00 31 1009.8
20260504233558 24 214 6.4 22.5 0.00 0.00 0.00 30 1009.8
20260504233108 25 226 8.0 22.5 0.00 0.00 0.00 30 1009.7
20260504232559 25 147 3.2 17.7 0.00 0.00 0.00 30 1009.7
20260504232058 25 227 4.8 17.7 0.00 0.00 0.00 29 1009.8
20260504231557 26 205 8.0 20.9 0.00 0.00 0.00 26 1009.7
20260504231058 26 206 3.2 22.5 0.00 0.00 0.00 28 1009.7
20260504230601 25 260 8.0 22.5 0.00 0.00 0.00 28 1009.7
20260504225559 26 263 3.2 9.7 0.00 0.00 0.00 27 1009.7
20260504225059 26 314 3.2 12.9 0.00 0.00 0.00 28 1009.7
20260504224558 26 256 3.2 16.1 0.00 0.00 0.00 28 1009.8
20260504224059 26 203 4.8 16.1 0.00 0.00 0.00 27 1009.9
20260504223559 26 245 6.4 16.1 0.00 0.00 0.00 27 1009.9
20260504223102 26 204 4.8 14.5 0.00 0.00 0.00 28 1009.8
20260504222601 26 224 3.2 14.5 0.00 0.00 0.00 28 1009.9
20260504222058 26 212 3.2 19.3 0.00 0.00 0.00 29 1009.9
20260504221603 26 322 4.8 19.3 0.00 0.00 0.00 27 1009.9
20260504221058 26 252 6.4 19.3 0.00 0.00 0.00 28 1010.0
20260504220558 26 210 4.8 19.3 0.00 0.00 0.00 27 1010.0
20260504220100 26 293 6.4 20.9 0.00 0.00 0.00 27 1010.0
20260504215559 26 230 6.4 20.9 0.00 0.00 0.00 26 1010.1
20260504215058 26 250 4.8 24.1 0.00 0.00 0.00 27 1010.1
20260504214614 26 201 6.4 24.1 0.00 0.00 0.00 27 1010.1
20260504214058 26 303 3.2 20.9 0.00 0.00 0.00 28 1010.1
20260504213558 26 216 4.8 17.7 0.00 0.00 0.00 29 1010.2
20260504213116 26 307 4.8 20.9 0.00 0.00 0.00 28 1010.3
20260504212559 26 327 4.8 20.9 0.00 0.00 0.00 28 1010.2
20260504212100 27 249 6.4 20.9 0.00 0.00 0.00 26 1010.3
20260504211556 27 250 6.4 11.3 0.00 0.00 0.00 27 1010.2
20260504211059 27 253 4.8 14.5 0.00 0.00 0.00 27 1010.2
20260504210559 27 213 3.2 14.5 0.00 0.00 0.00 26 1010.2
20260504205559 27 256 4.8 12.9 0.00 0.00 0.00 27 1010.3
20260504205058 27 242 4.8 12.9 0.00 0.00 0.00 26 1010.4
20260504204601 27 232 3.2 17.7 0.00 0.00 0.00 26 1010.4
20260504204058 27 242 4.8 17.7 0.00 0.00 0.00 28 1010.4
20260504203558 27 275 3.2 16.1 0.00 0.00 0.00 25 1010.4
20260504203106 27 256 4.8 16.1 0.00 0.00 0.00 27 1010.4
20260504202558 27 243 4.8 14.5 0.00 0.00 0.00 26 1010.4
20260504202059 27 242 6.4 14.5 0.00 0.00 0.00 27 1010.5
20260504201621 27 235 3.2 8.0 0.00 0.00 0.00 27 1010.4
20260504201058 27 248 1.6 8.0 0.00 0.00 0.00 27 1010.4
20260504200559 27 214 3.2 8.0 0.00 0.00 0.00 26 1010.5
20260504200111 26 264 3.2 12.9 0.00 0.00 0.00 28 1010.6
20260504195558 26 237 4.8 17.7 0.00 0.00 0.00 28 1010.6
20260504195059 26 193 3.2 19.3 0.00 0.00 0.00 28 1010.6
20260504194604 26 251 4.8 19.3 0.00 0.00 0.00 29 1010.6
20260504194059 26 238 3.2 19.3 0.00 0.00 0.00 29 1010.6
20260504193559 26 196 8.0 19.3 0.00 0.00 0.00 29 1010.6
20260504193113 26 228 3.2 9.7 0.00 0.00 0.00 29 1010.6
20260504192558 26 201 1.6 12.9 0.00 0.00 0.00 29 1010.7
20260504192104 26 258 4.8 16.1 0.00 0.00 0.00 28 1010.7
20260504191605 26 259 6.4 16.1 0.00 0.00 0.00 28 1010.8
20260504191055 26 248 1.6 8.0 0.00 0.00 0.00 29 1010.8
20260504190555 26 245 3.2 9.7 0.00 0.00 0.00 28 1010.8
20260504190115 25 241 1.6 9.7 0.00 0.00 0.00 30 1010.8
20260504185558 25 220 1.6 8.0 0.00 0.00 0.00 29 1010.8
20260504185059 25 226 1.6 16.1 0.00 0.00 0.00 29 1010.9
20260504184626 25 240 3.2 16.1 0.00 0.00 0.00 28 1011.0
20260504184059 26 243 4.8 14.5 0.00 0.00 0.00 28 1010.9
20260504183556 25 257 3.2 12.9 0.00 0.00 0.00 29 1010.9
20260504183056 25 233 3.2 12.9 0.00 0.00 0.00 29 1011.0
20260504182559 25 215 4.8 12.9 0.00 0.00 0.00 30 1011.0
20260504182058 25 135 3.2 17.7 0.00 0.00 0.00 31 1011.0
20260504181559 25 244 6.4 17.7 0.00 0.00 0.00 30 1011.0
20260504181056 25 246 3.2 11.3 0.00 0.00 0.00 30 1011.0
20260504180559 25 234 3.2 11.3 0.00 0.00 0.00 31 1011.0
20260504180058 24 259 3.2 11.3 0.00 0.00 0.00 31 1010.9
20260504175555 24 312 3.2 11.3 0.00 0.00 0.00 32 1011.1
20260504175055 24 264 1.6 6.4 0.00 0.00 0.00 33 1011.1
20260504174556 23 258 1.6 6.4 0.00 0.00 0.00 33 1011.0
20260504174055 23 243 1.6 8.0 0.00 0.00 0.00 32 1011.1
20260504173559 23 245 1.6 8.0 0.00 0.00 0.00 33 1011.2
20260504173058 22 221 3.2 8.0 0.00 0.00 0.00 33 1011.3
20260504172555 22 239 1.6 8.0 0.00 0.00 0.00 34 1011.3
20260504172100 22 216 3.2 6.4 0.00 0.00 0.00 34 1011.2
20260504171610 21 0 1.6 14.5 0.00 0.00 0.00 36 1011.3
20260504171056 21 207 1.6 14.5 0.00 0.00 0.00 36 1011.3
20260504170555 21 225 3.2 14.5 0.00 0.00 0.00 38 1011.3
20260504160105 16 0 1.6 4.8 0.00 0.00 0.00 55 1011.2
20260504151058 13 0 0.0 3.2 0.00 0.00 0.00 61 1011.6
20260504150558 13 0 0.0 1.6 0.00 0.00 0.00 61 1011.7
20260504141058 11 0 0.0 3.2 0.00 0.00 0.00 54 1011.5
20260504140558 11 185 0.0 1.6 0.00 0.00 0.00 54 1011.4
20260504140109 11 104 0.0 0.0 0.00 0.00 0.00 51 1011.4
20260504130557 11 104 1.6 3.2 0.00 0.00 0.00 46 1011.1
20260504120120 11 137 1.6 3.2 0.00 0.00 0.00 41 1011.2
20260504110559 12 0 0.0 3.2 0.00 0.00 0.00 40 1011.2
20260504110107 12 106 0.0 3.2 0.00 0.00 0.00 42 1011.2
20260504100559 13 0 0.0 3.2 0.00 0.00 0.00 40 1011.5
20260504100105 13 110 0.0 3.2 0.00 0.00 0.00 40 1011.5